This is the latest recevied weather packets stored in our database for station/object AB0TJ. If no packets are shown the sender has not sent any weather packets the latest 10 day(s).
| Time | Temp. | Humidity | Pressure | Rain* | Wind** | Luminosity | Snow |
|---|---|---|---|---|---|---|---|
| 1777890373 | 15° C | 56% | 1012.8 hPa | 0 mm | - | 0 W/m² | - |
| 1777889779 | 15.56° C | 54% | 1013 hPa | 0 mm | - | 0 W/m² | - |
| 1777889189 | 15.56° C | 49% | 1013.2 hPa | 0 mm | - | 0 W/m² | - |
| 1777888672 | 16.11° C | 47% | 1013 hPa | 0 mm | - | 0 W/m² | - |
| 1777888181 | 16.67° C | 48% | 1013 hPa | 0 mm | - | 0 W/m² | - |
| 1777887592 | 17.22° C | 45% | 1012.7 hPa | 0 mm | - | 0 W/m² | - |
| 1777887099 | 17.22° C | 39% | 1012.4 hPa | 0 mm | - | 0 W/m² | - |
| 1777886617 | 17.22° C | 37% | 1012.3 hPa | 0 mm | - | 0 W/m² | - |
| 1777886133 | 17.22° C | 36% | 1011.9 hPa | 0 mm | - | 0 W/m² | - |
| 1777885623 | 17.78° C | 37% | 1012.2 hPa | 0 mm | - | 0 W/m² | - |
| 1777885139 | 17.78° C | 36% | 1012.1 hPa | 0 mm | - | 0 W/m² | - |
| 1777884553 | 17.78° C | 36% | 1012 hPa | 0 mm | - | 0 W/m² | - |
| 1777884049 | 17.78° C | 36% | 1011.5 hPa | 0 mm | - | 0 W/m² | - |
| 1777883484 | 17.78° C | 35% | 1011.6 hPa | 0 mm | - | 0 W/m² | - |
| 1777882959 | 18.33° C | 35% | 1011.3 hPa | 0 mm | - | 0 W/m² | - |
| 1777882399 | 18.33° C | 35% | 1011.3 hPa | 0 mm | - | 0 W/m² | - |
| 1777881884 | 18.33° C | 35% | 1011.2 hPa | 0 mm | - | 0 W/m² | - |
| 1777881397 | 17.78° C | 34% | 1011.3 hPa | 0 mm | - | 0 W/m² | - |
| 1777880820 | 17.78° C | 35% | 1011.5 hPa | 0 mm | - | 0 W/m² | - |
| 1777880279 | 18.33° C | 33% | 1011.2 hPa | 0 mm | - | 0 W/m² | - |
| 1777879789 | 18.33° C | 32% | 1011.4 hPa | 0 mm | - | 0 W/m² | - |
| 1777879189 | 18.33° C | 31% | 1011.3 hPa | 0 mm | - | 0 W/m² | - |
| 1777878693 | 18.33° C | 29% | 1011.3 hPa | 0 mm | - | 0 W/m² | - |
| 1777878122 | 18.33° C | 32% | 1011 hPa | 0 mm | - | 0 W/m² | - |
| 1777877624 | 17.78° C | 32% | 1011.1 hPa | 0 mm | - | 0 W/m² | - |
* Rain latest hour (hover to see other rain measurements)
** Current wind speed in m/s (hover to see current wind gust speed)